Location: Powder Track
(41.8531°N, 72.3584°W)
Time: 07:13:34
(UTC+00:00)

Transit 4A - Pass Details

Date: 09 August 2021
Orbit: 871 x 974 km, 66.8° (Epoch: 20 September)

Event Time Altitude Azimuth Distance (km) Brightness Sun altitude
Rises 03:06:25 0° 216° (SW) 3,488 - -27.1°
Reaches altitude 10° 03:08:56 10° 219° (SW) 2,540 - -27.4°
Exits shadow 03:12:49 42° 236° (SW) 1,232 8.4 -27.7°
Maximum altitude 03:14:46 67° 302° (WNW) 946 8.0 -27.9°
Drops below altitude 10° 03:20:34 10° 26° (NNE) 2,525 10.6 -28.4°
Sets 03:23:04 0° 29° (NNE) 3,466 11.4 -28.6°
